Weather History for KMJX - August, 2013

Change the Weather History Date:

Tuesday, August 13, 2013

  Actual Average Record
Temperature  
Mean Temperature 73 °F -  
Max Temperature 80 °F 82 °F 98 °F (1988)
Min Temperature 66 °F 60 °F 48 °F (1989)
Cooling Degree Days 8    
Growing Degree Days 23 (Base 50)    
Moisture  
Dew Point 70 °F    
Average Humidity 92    
Maximum Humidity 100    
Minimum Humidity 65    
Precipitation  
Precipitation 1.25 in - - ()
Sea Level Pressure  
Sea Level Pressure 29.79 in    
Wind  
Wind Speed 3 mph (SW)    
Max Wind Speed 13 mph    
Max Gust Speed 17 mph    
Visibility 6 miles    
Events Thunderstorm    
Averages and records for this station are not official NWS values.
T = Trace of Precipitation, MM = Missing Value Source: NWS Daily Summary

Daily Weather History Graph

Daily Weather History Graph

Search for Another Location

Airport or City:

Trip Planner

Search our weather history database for the weather conditions in past years. The results will help you decide how hot, cold, wet, or windy it might be!

Date:

Astronomy

Aug. 13, 2013 Rise Set
Actual Time 6:07 AM EDT 7:56 PM EDT
Civil Twilight 5:38 AM EDT 8:25 PM EDT
Nautical Twilight 5:02 AM EDT 9:00 PM EDT
Astronomical Twilight 4:24 AM EDT 9:38 PM EDT
Moon 12:58 PM EDT (8/13) 11:29 PM EDT (8/13)
Length of Visible Light 14h 47m
Length of Day
13h 48m
Waxing Crescent, 41% of the Moon is Illuminated
Aug 13
Waxing Crescent
Aug 14
First Quarter
Aug 20
Full
Aug 28
Last Quarter
Sep 5
New

Hourly Weather History & Observations

Time (EDT) Temp. Heat Index Dew Point Humidity Pressure Visibility Wind Dir Wind Speed Gust Speed Precip Events Conditions
1:15 AM 66.2 °F - 66.2 °F 100% 29.92 in 1.0 mi Calm Calm - N/A   Clear
1:35 AM 66.2 °F - 64.4 °F 94% 29.92 in 1.5 mi Calm Calm - N/A   Clear
1:55 AM 66.2 °F - 66.2 °F 100% 29.92 in 0.5 mi Calm Calm - N/A   Unknown
2:15 AM 66.2 °F - 66.2 °F 100% 29.91 in 0.5 mi Calm Calm - N/A   Unknown
2:35 AM 66.2 °F - 64.4 °F 94% 29.90 in 0.5 mi Calm Calm - N/A   Mostly Cloudy
2:55 AM 66.2 °F - 66.2 °F 100% 29.90 in 0.5 mi Calm Calm - N/A   Overcast
3:15 AM 66.2 °F - 66.2 °F 100% 29.89 in 0.2 mi Calm Calm - N/A   Mostly Cloudy
3:35 AM 66.2 °F - 66.2 °F 100% 29.88 in 0.5 mi Calm Calm - N/A   Unknown
3:55 AM 68.0 °F - 68.0 °F 100% 29.88 in 1.0 mi Calm Calm - N/A   Overcast
4:15 AM 69.8 °F - 69.8 °F 100% 29.87 in 0.8 mi Calm Calm - N/A   Overcast
4:35 AM 69.8 °F - 68.0 °F 94% 29.87 in 1.0 mi SSE 3.5 mph - N/A   Overcast
4:55 AM 69.8 °F - 69.8 °F 100% 29.86 in 0.5 mi Calm Calm - N/A   Overcast
5:15 AM 69.8 °F - 69.8 °F 100% 29.86 in 0.5 mi Calm Calm - N/A   Unknown
5:35 AM 69.8 °F - 69.8 °F 100% 29.86 in 1.2 mi SSE 3.5 mph - N/A   Mostly Cloudy
5:55 AM 71.6 °F - 71.6 °F 100% 29.85 in 2.0 mi SSE 3.5 mph - N/A   Overcast
6:15 AM 71.6 °F - 71.6 °F 100% 29.84 in 1.5 mi SE 3.5 mph - N/A   Overcast
6:35 AM 71.6 °F - 71.6 °F 100% 29.84 in 0.8 mi SE 4.6 mph - N/A   Overcast
6:55 AM 71.6 °F - 71.6 °F 100% 29.83 in 2.5 mi Calm Calm - N/A   Mostly Cloudy
7:15 AM 73.4 °F - 73.4 °F 100% 29.82 in 3.0 mi SE 4.6 mph - N/A   Mostly Cloudy
7:35 AM 73.4 °F - 71.6 °F 94% 29.82 in 5.0 mi SSE 4.6 mph - N/A   Mostly Cloudy
7:55 AM 73.4 °F - 71.6 °F 94% 29.82 in 3.0 mi ESE 4.6 mph - N/A   Scattered Clouds
8:15 AM 73.4 °F - 73.4 °F 100% 29.82 in 3.0 mi East 3.5 mph - N/A Thunderstorm Scattered Clouds
8:35 AM 73.4 °F - 73.4 °F 100% 29.81 in 3.0 mi ESE 5.8 mph - N/A   Mostly Cloudy
8:55 AM 73.4 °F - 73.4 °F 100% 29.80 in 3.0 mi ESE 5.8 mph - 0.01 in   Mostly Cloudy
9:15 AM 75.2 °F - 75.2 °F 100% 29.76 in 3.0 mi SE 8.1 mph - 0.03 in Thunderstorm Mostly Cloudy
9:35 AM 75.2 °F - 75.2 °F 100% 29.76 in 5.0 mi SE 8.1 mph - 0.10 in Thunderstorm Thunderstorm
9:55 AM 75.2 °F - 75.2 °F 100% 29.74 in 2.0 mi ESE 6.9 mph - 0.40 in Thunderstorm Thunderstorm
10:15 AM 73.4 °F - 71.6 °F 94% 29.77 in 2.5 mi SW 10.4 mph 16.1 mph 0.32 in Thunderstorm Thunderstorm
10:35 AM 71.6 °F - 71.6 °F 100% 29.77 in 5.0 mi SW 5.8 mph - 0.73 in Thunderstorm Overcast
10:55 AM 71.6 °F - 71.6 °F 100% 29.74 in 8.0 mi ENE 3.5 mph - 0.79 in Thunderstorm Overcast
11:15 AM 71.6 °F - 71.6 °F 100% 29.74 in 5.0 mi Calm Calm - 0.03 in Thunderstorm Mostly Cloudy
11:35 AM 71.6 °F - 69.8 °F 94% 29.73 in 10.0 mi Calm Calm - 0.05 in   Scattered Clouds
11:55 AM 71.6 °F - 69.8 °F 94% 29.76 in 10.0 mi WSW 4.6 mph - 0.05 in   Mostly Cloudy
12:15 PM 73.4 °F - 71.6 °F 94% 29.75 in 10.0 mi West 6.9 mph - N/A   Mostly Cloudy
12:35 PM 73.4 °F - 71.6 °F 94% 29.74 in 10.0 mi WNW 6.9 mph - N/A   Overcast
12:55 PM 73.4 °F - 71.6 °F 94% 29.74 in 10.0 mi WNW 6.9 mph - N/A   Mostly Cloudy
1:15 PM 75.2 °F - 71.6 °F 89% 29.74 in 10.0 mi WNW 8.1 mph - N/A   Mostly Cloudy
1:35 PM 75.2 °F - 71.6 °F 89% 29.74 in 10.0 mi WNW 5.8 mph - N/A   Overcast
1:55 PM 77.0 °F - 71.6 °F 83% 29.74 in 10.0 mi WNW 8.1 mph - N/A   Mostly Cloudy
2:15 PM 77.0 °F - 71.6 °F 83% 29.73 in 10.0 mi NW 6.9 mph - N/A   Overcast
2:35 PM 78.8 °F - 71.6 °F 78% 29.73 in 10.0 mi WNW 11.5 mph - N/A   Overcast
2:55 PM 80.6 °F 84.6 °F 71.6 °F 74% 29.73 in 10.0 mi NW 12.7 mph - N/A   Mostly Cloudy
3:15 PM 80.6 °F 84.6 °F 71.6 °F 74% 29.72 in 10.0 mi WNW 11.5 mph - N/A   Mostly Cloudy
3:35 PM 77.0 °F - 71.6 °F 83% 29.73 in 10.0 mi NNW 6.9 mph - N/A   Mostly Cloudy
3:55 PM 78.8 °F - 71.6 °F 78% 29.72 in 10.0 mi NNW 9.2 mph 17.3 mph N/A   Mostly Cloudy
4:15 PM 80.6 °F 83.9 °F 69.8 °F 70% 29.72 in 10.0 mi NNW 12.7 mph - N/A   Scattered Clouds
4:35 PM 78.8 °F - 71.6 °F 78% 29.73 in 10.0 mi North 11.5 mph 16.1 mph N/A   Mostly Cloudy
4:55 PM 78.8 °F - 69.8 °F 74% 29.73 in 10.0 mi NNW 4.6 mph - N/A   Mostly Cloudy
5:15 PM 78.8 °F - 69.8 °F 74% 29.73 in 10.0 mi North 6.9 mph - N/A   Partly Cloudy
5:35 PM 78.8 °F - 69.8 °F 74% 29.73 in 10.0 mi NNW 5.8 mph - N/A   Clear
5:55 PM 80.6 °F 83.2 °F 68.0 °F 65% 29.73 in 10.0 mi Calm Calm - N/A   Scattered Clouds
6:15 PM 78.8 °F - 69.8 °F 74% 29.73 in 10.0 mi NNW 3.5 mph - N/A   Partly Cloudy
6:35 PM 80.6 °F 83.9 °F 69.8 °F 70% 29.74 in 10.0 mi West 3.5 mph - N/A   Scattered Clouds
6:55 PM 78.8 °F - 69.8 °F 74% 29.74 in 10.0 mi WSW 3.5 mph - N/A   Partly Cloudy
7:15 PM 77.0 °F - 71.6 °F 83% 29.75 in 10.0 mi SSW 3.5 mph - N/A   Clear
7:35 PM 75.2 °F - 71.6 °F 89% 29.76 in 10.0 mi South 9.2 mph - N/A   Clear
7:55 PM 73.4 °F - 71.6 °F 94% 29.76 in 10.0 mi SE 5.8 mph - N/A   Clear
8:15 PM 71.6 °F - 71.6 °F 100% 29.75 in 10.0 mi SE 4.6 mph - N/A   Clear
8:35 PM 71.6 °F - 69.8 °F 94% 29.76 in 10.0 mi South 4.6 mph - N/A   Clear
8:55 PM 71.6 °F - 69.8 °F 94% 29.76 in 10.0 mi South 3.5 mph - N/A   Clear
9:15 PM 69.8 °F - 68.0 °F 94% 29.75 in 10.0 mi SSE 4.6 mph - N/A   Clear
9:35 PM 69.8 °F - 68.0 °F 94% 29.76 in 10.0 mi South 3.5 mph - N/A   Clear
9:55 PM 69.8 °F - 69.8 °F 100% 29.76 in 9.0 mi Calm Calm - N/A   Clear
10:15 PM 69.8 °F - 69.8 °F 100% 29.76 in 9.0 mi Calm Calm - N/A   Clear
10:35 PM 69.8 °F - 69.8 °F 100% 29.76 in 7.0 mi Calm Calm - N/A   Partly Cloudy
10:55 PM 69.8 °F - 69.8 °F 100% 29.76 in 7.0 mi Calm Calm - N/A   Clear
11:15 PM 69.8 °F - 69.8 °F 100% 29.76 in 9.0 mi Calm Calm - N/A   Partly Cloudy
11:35 PM 69.8 °F - 69.8 °F 100% 29.76 in 10.0 mi WSW 4.6 mph - N/A   Partly Cloudy
11:55 PM 69.8 °F - 69.8 °F 100% 29.75 in 10.0 mi WNW 4.6 mph - N/A   Clear